• în România
  • Lista ţărilor
  • Pe 7 zile
  • Temperatura apei
  • Hartă satelitară
  • Meteo pe hartă
  • Widget-uri
  • user-avatar
    Intrare

    Meteo pe oră la Uige

    Astăzi, 23 Septembrie, Sâmbătă

    Timp Temperatura Precipitaţii Vânt Presiune Umiditate
    00:00 +24°C° 0,2 mm 1 m/s 692 mmHg 82%
    01:00 +23°C° 0,2 mm 1 m/s 691 mmHg 86%
    02:00 +23°C° 0 mm 1 m/s 691 mmHg 88%
    03:00 +23°C° 0 mm 1 m/s 691 mmHg 90%
    04:00 +22°C° 0 mm 1 m/s 691 mmHg 92%
    05:00 +22°C° 0 mm 1 m/s 691 mmHg 91%
    06:00 +21°C° 0 mm 2 m/s 691 mmHg 89%
    07:00 +23°C° 0 mm 2 m/s 692 mmHg 88%
    08:00 +24°C° 0 mm 2 m/s 692 mmHg 82%
    09:00 +25°C° 0 mm 2 m/s 692 mmHg 76%
    10:00 +26°C° 0 mm 2 m/s 693 mmHg 70%
    11:00 +29°C° 0,1 mm 2 m/s 692 mmHg 61%
    12:00 +31°C° 0,1 mm 2 m/s 692 mmHg 52%
    13:00 +34°C° 0,1 mm 2 m/s 692 mmHg 43%
    14:00 +32°C° 0,3 mm 2 m/s 691 mmHg 47%
    15:00 +31°C° 0,3 mm 2 m/s 691 mmHg 50%
    16:00 +30°C° 0,3 mm 2 m/s 690 mmHg 53%
    17:00 +29°C° 0,1 mm 2 m/s 690 mmHg 59%
    18:00 +27°C° 0,1 mm 2 m/s 691 mmHg 64%
    19:00 +26°C° 0,1 mm 2 m/s 691 mmHg 69%
    20:00 +25°C° 0 mm 2 m/s 691 mmHg 74%
    21:00 +25°C° 0 mm 2 m/s 692 mmHg 78%
    22:00 +24°C° 0 mm 2 m/s 692 mmHg 83%
    23:00 +23°C° 0 mm 2 m/s 692 mmHg 85%

    Mâine, 24 Septembrie, Duminică

    Timp Temperatura Precipitaţii Vânt Presiune Umiditate
    00:00 +23°C° 0 mm 2 m/s 692 mmHg 87%
    01:00 +23°C° 0 mm 1 m/s 692 mmHg 89%
    02:00 +23°C° 0 mm 2 m/s 692 mmHg 88%
    03:00 +21°C° 0 mm 2 m/s 692 mmHg 87%
    04:00 +21°C° 0 mm 2 m/s 691 mmHg 86%
    05:00 +21°C° 0 mm 2 m/s 692 mmHg 85%
    06:00 +21°C° 0 mm 2 m/s 692 mmHg 84%
    07:00 +23°C° 0 mm 2 m/s 693 mmHg 83%
    08:00 +24°C° 0 mm 2 m/s 693 mmHg 74%
    09:00 +26°C° 0 mm 2 m/s 694 mmHg 66%
    10:00 +28°C° 0 mm 2 m/s 694 mmHg 57%
    11:00 +30°C° 0 mm 2 m/s 693 mmHg 51%
    12:00 +32°C° 0 mm 2 m/s 693 mmHg 44%
    13:00 +35°C° 0 mm 2 m/s 692 mmHg 38%
    14:00 +34°C° 0 mm 2 m/s 692 mmHg 39%
    15:00 +34°C° 0 mm 2 m/s 691 mmHg 41%
    16:00 +32°C° 0 mm 2 m/s 690 mmHg 42%
    17:00 +31°C° 0,1 mm 2 m/s 690 mmHg 48%
    18:00 +29°C° 0,1 mm 2 m/s 691 mmHg 54%
    19:00 +28°C° 0,1 mm 2 m/s 691 mmHg 60%
    20:00 +27°C° 0 mm 2 m/s 691 mmHg 65%
    21:00 +26°C° 0 mm 2 m/s 692 mmHg 71%
    22:00 +25°C° 0 mm 3 m/s 692 mmHg 76%
    23:00 +24°C° 0,4 mm 2 m/s 692 mmHg 80%

    Poimâine, 25 Septembrie, Luni

    Timp Temperatura Precipitaţii Vânt Presiune Umiditate
    00:00 +24°C° 0,4 mm 2 m/s 692 mmHg 83%
    01:00 +23°C° 0,4 mm 2 m/s 691 mmHg 87%
    02:00 +23°C° 0,1 mm 2 m/s 691 mmHg 88%
    03:00 +23°C° 0,1 mm 2 m/s 691 mmHg 88%
    04:00 +21°C° 0,1 mm 2 m/s 691 mmHg 89%
    05:00 +21°C° 0 mm 2 m/s 691 mmHg 87%
    06:00 +21°C° 0 mm 2 m/s 691 mmHg 86%
    07:00 +21°C° 0 mm 2 m/s 692 mmHg 85%
    08:00 +24°C° 0 mm 2 m/s 692 mmHg 76%
    09:00 +26°C° 0 mm 2 m/s 693 mmHg 66%
    10:00 +28°C° 0 mm 2 m/s 694 mmHg 57%
    11:00 +30°C° 0 mm 2 m/s 693 mmHg 51%
    12:00 +31°C° 0 mm 2 m/s 692 mmHg 46%
    13:00 +34°C° 0 mm 2 m/s 692 mmHg 41%
    14:00 +32°C° 0 mm 2 m/s 691 mmHg 42%
    15:00 +31°C° 0 mm 2 m/s 690 mmHg 44%
    16:00 +31°C° 0 mm 2 m/s 690 mmHg 46%
    17:00 +29°C° 0 mm 2 m/s 690 mmHg 51%
    18:00 +28°C° 0 mm 2 m/s 690 mmHg 56%
    19:00 +26°C° 0 mm 2 m/s 690 mmHg 62%
    20:00 +25°C° 0 mm 2 m/s 691 mmHg 66%
    21:00 +25°C° 0 mm 2 m/s 691 mmHg 71%
    22:00 +24°C° 0 mm 2 m/s 691 mmHg 76%
    23:00 +23°C° 0 mm 2 m/s 691 mmHg 80%

    26 Septembrie, Marţi

    Timp Temperatura Precipitaţii Vânt Presiune Umiditate
    00:00 +21°C° 0 mm 2 m/s 691 mmHg 83%
    01:00 +21°C° 0 mm 2 m/s 690 mmHg 87%
    02:00 +21°C° 0 mm 2 m/s 690 mmHg 86%
    03:00 +21°C° 0 mm 2 m/s 690 mmHg 85%
    04:00 +21°C° 0 mm 2 m/s 690 mmHg 84%
    05:00 +21°C° 0 mm 2 m/s 691 mmHg 83%
    06:00 +21°C° 0 mm 2 m/s 691 mmHg 82%
    07:00 +21°C° 0 mm 2 m/s 692 mmHg 81%
    08:00 +24°C° 0 mm 2 m/s 692 mmHg 71%
    09:00 +26°C° 0 mm 2 m/s 693 mmHg 61%
    10:00 +28°C° 0 mm 2 m/s 693 mmHg 52%
    11:00 +30°C° 0 mm 2 m/s 692 mmHg 46%
    12:00 +33°C° 0 mm 3 m/s 691 mmHg 40%
    13:00 +35°C° 0 mm 3 m/s 691 mmHg 35%
    14:00 +34°C° 0 mm 3 m/s 690 mmHg 36%
    15:00 +34°C° 0 mm 3 m/s 690 mmHg 37%
    16:00 +33°C° 0 mm 3 m/s 689 mmHg 38%
    17:00 +31°C° 0 mm 2 m/s 690 mmHg 44%
    18:00 +29°C° 0 mm 2 m/s 690 mmHg 49%
    19:00 +27°C° 0 mm 2 m/s 690 mmHg 55%
    20:00 +26°C° 0 mm 2 m/s 691 mmHg 62%
    21:00 +25°C° 0 mm 2 m/s 691 mmHg 68%
    22:00 +24°C° 0 mm 2 m/s 691 mmHg 75%
    23:00 +23°C° 0 mm 2 m/s 691 mmHg 78%

    27 Septembrie, Miercuri

    Timp Temperatura Precipitaţii Vânt Presiune Umiditate
    00:00 +23°C° 0 mm 2 m/s 691 mmHg 82%
    01:00 +21°C° 0 mm 2 m/s 690 mmHg 85%
    02:00 +21°C° 0 mm 2 m/s 690 mmHg 85%
    03:00 +21°C° 0 mm 2 m/s 690 mmHg 85%
    04:00 +21°C° 0 mm 2 m/s 690 mmHg 84%
    05:00 +21°C° 0 mm 2 m/s 691 mmHg 82%
    06:00 +21°C° 0 mm 2 m/s 691 mmHg 80%
    07:00 +21°C° 0 mm 2 m/s 692 mmHg 78%
    08:00 +25°C° 0 mm 2 m/s 692 mmHg 67%
    09:00 +27°C° 0 mm 2 m/s 693 mmHg 56%
    10:00 +30°C° 0 mm 2 m/s 693 mmHg 45%
    11:00 +32°C° 0 mm 2 m/s 692 mmHg 41%
    12:00 +34°C° 0 mm 2 m/s 692 mmHg 36%
    13:00 +36°C° 0 mm 2 m/s 691 mmHg 32%
    14:00 +34°C° 0 mm 1 m/s 690 mmHg 34%
    15:00 +33°C° 0 mm 1 m/s 690 mmHg 36%
    16:00 +32°C° 0 mm 1 m/s 689 mmHg 38%
    17:00 +31°C° 0 mm 1 m/s 690 mmHg 41%
    18:00 +30°C° 0 mm 1 m/s 690 mmHg 45%
    19:00 +28°C° 0 mm 1 m/s 691 mmHg 49%
    20:00 +27°C° 0,1 mm 1 m/s 691 mmHg 54%
    21:00 +26°C° 0,1 mm 1 m/s 691 mmHg 59%
    22:00 +25°C° 0,1 mm 2 m/s 691 mmHg 64%
    23:00 +25°C° 0 mm 2 m/s 691 mmHg 68%

    28 Septembrie, Joi

    Timp Temperatura Precipitaţii Vânt Presiune Umiditate
    00:00 +24°C° 0 mm 2 m/s 691 mmHg 73%
    01:00 +23°C° 0 mm 2 m/s 691 mmHg 78%
    02:00 +22°C° 0 mm 1 m/s 690 mmHg 80%
    03:00 +22°C° 0 mm 1 m/s 690 mmHg 83%
    04:00 +21°C° 0 mm 1 m/s 690 mmHg 85%
    05:00 +22°C° 0 mm 1 m/s 691 mmHg 83%
    06:00 +22°C° 0 mm 1 m/s 692 mmHg 81%
    07:00 +22°C° 0 mm 1 m/s 692 mmHg 80%
    08:00 +26°C° 0 mm 1 m/s 693 mmHg 66%
    09:00 +29°C° 0 mm 1 m/s 693 mmHg 53%
    10:00 +33°C° 0 mm 1 m/s 694 mmHg 40%
    11:00 +35°C° 0 mm 1 m/s 693 mmHg 35%
    12:00 +37°C° 0 mm 1 m/s 692 mmHg 30%
    13:00 +40°C° 0 mm 1 m/s 692 mmHg 26%
    14:00 +37°C° 0,1 mm 1 m/s 691 mmHg 30%
    15:00 +34°C° 0,1 mm 1 m/s 690 mmHg 35%
    16:00 +32°C° 0,1 mm 1 m/s 689 mmHg 39%
    17:00 +30°C° 0,9 mm 1 m/s 689 mmHg 48%
    18:00 +28°C° 0,9 mm 1 m/s 690 mmHg 57%
    19:00 +26°C° 0,9 mm 1 m/s 690 mmHg 66%
    20:00 +26°C° 0 mm 1 m/s 690 mmHg 69%
    21:00 +25°C° 0 mm 1 m/s 690 mmHg 71%
    22:00 +25°C° 0 mm 1 m/s 691 mmHg 74%
    23:00 +24°C° 0 mm 1 m/s 691 mmHg 77%
    Arată mai mult